#�ϑ�����,���ϕ���,���ϕ���,�ő啗��,�ő啗����������,�ő�u�ԕ���,�ő�u�ԕ�����������
#(�N����),(m/s)   ,(16����),(m/s)   ,(16����)        ,(m/s)       ,(16����)            
2017/12/17 0:01,1.9,11,1.9,11,5.5,10
2017/12/17 0:02,2,11,2,11,4.7,10
2017/12/17 0:03,2.1,11,2.1,11,5.5,8
2017/12/17 0:04,2.7,11,2.7,11,10.1,10
2017/12/17 0:05,3.2,11,3.2,11,8.2,12
2017/12/17 0:06,3.4,11,3.4,11,5.5,12
2017/12/17 0:07,3.4,11,3.4,11,6.2,7
2017/12/17 0:08,3.4,11,3.4,11,4.9,11
2017/12/17 0:09,3.4,12,3.4,11,6,12
2017/12/17 0:10,3.8,11,3.8,11,8.3,10
2017/12/17 0:11,3.9,11,3.9,11,7.1,12
2017/12/17 0:12,3.9,12,3.9,11,6.2,13
2017/12/17 0:13,3.8,12,3.8,11,5.4,15
2017/12/17 0:14,3.4,12,3.8,11,5,8
2017/12/17 0:15,3.2,12,3.4,11,5.4,10
2017/12/17 0:16,2.9,12,3.2,11,2.9,9
2017/12/17 0:17,2.7,12,2.9,11,1.8,11
2017/12/17 0:18,2.7,12,2.7,11,5.4,12
2017/12/17 0:19,2.8,11,2.8,11,6.2,10
2017/12/17 0:20,2.5,11,2.8,11,5.6,11
2017/12/17 0:21,2.4,11,2.5,11,3.7,14
2017/12/17 0:22,2.4,11,2.5,12,3.6,10
2017/12/17 0:23,2.3,11,2.4,12,2.9,8
2017/12/17 0:24,2.4,11,2.4,12,5.6,13
2017/12/17 0:25,2.3,11,2.4,12,4.1,14
2017/12/17 0:26,2.4,11,2.4,12,3.6,14
2017/12/17 0:27,2.5,11,2.5,11,3.2,8
2017/12/17 0:28,2.4,11,2.6,11,3.3,10
2017/12/17 0:29,2.4,11,2.5,11,5.1,11
2017/12/17 0:30,2.3,11,2.4,11,4.3,9
2017/12/17 0:31,2.2,11,2.3,11,2.6,9
2017/12/17 0:32,2,11,2.2,11,2.2,10
2017/12/17 0:33,2,11,2,11,3.2,9
2017/12/17 0:34,1.8,10,2,11,3.3,12
2017/12/17 0:35,1.7,10,1.8,11,2.6,13
2017/12/17 0:36,1.6,10,1.6,11,2,8
2017/12/17 0:37,1.6,10,1.6,11,3.3,8
2017/12/17 0:38,1.7,10,1.7,11,6.8,10
2017/12/17 0:39,1.8,10,1.8,11,7.1,8
2017/12/17 0:40,2,11,2,11,7.7,12
2017/12/17 0:41,2.1,11,2.1,11,4.8,9
2017/12/17 0:42,2.2,11,2.2,10,1.5,14
2017/12/17 0:43,2.1,11,2.2,10,1.9,10
2017/12/17 0:44,2.2,11,2.2,10,7.5,11
2017/12/17 0:45,2.4,11,2.4,11,6.9,14
2017/12/17 0:46,2.5,12,2.5,11,3.9,14
2017/12/17 0:47,2.5,12,2.5,11,3.9,1
2017/12/17 0:48,2.3,13,2.5,11,2.2,1
2017/12/17 0:49,2,13,2.2,11,2.1,10
2017/12/17 0:50,1.9,13,1.9,11,8.1,8
2017/12/17 0:51,1.9,13,1.9,11,5.4,15
2017/12/17 0:52,2.1,14,2.1,11,5.8,15
2017/12/17 0:53,2.2,14,2.2,11,5,10
2017/12/17 0:54,2.3,14,2.3,11,8.1,12
2017/12/17 0:55,2.5,14,2.5,11,7.2,12
2017/12/17 0:56,2.5,13,2.5,12,3.7,15
2017/12/17 0:57,2.7,13,2.7,13,8.3,11
2017/12/17 0:58,2.9,12,2.9,12,7.4,16
2017/12/17 0:59,3.1,12,3.1,12,4.9,13
2017/12/17 1:00,2.9,12,3.1,12,4.8,9
2017/12/17 1:01,3.1,13,3.1,12,8.1,13
2017/12/17 1:02,3.1,13,3.1,12,4.3,15
2017/12/17 1:03,3.1,13,3.1,12,4.7,10
2017/12/17 1:04,2.9,13,3.1,12,5.4,9
2017/12/17 1:05,3.1,12,3.1,12,9.5,13
2017/12/17 1:06,3.2,12,3.2,12,5.2,11
2017/12/17 1:07,3,12,3.2,12,5.7,12
2017/12/17 1:08,3.2,12,3.2,12,12.5,10
2017/12/17 1:09,3.6,12,3.6,12,11.1,10
2017/12/17 1:10,4,12,4,12,10.8,11
2017/12/17 1:11,3.9,11,4,12,6.9,12
2017/12/17 1:12,4.2,11,4.2,11,8.2,12
2017/12/17 1:13,4.5,11,4.5,11,7.9,12
2017/12/17 1:14,4.7,12,4.7,11,7.9,14
2017/12/17 1:15,4.4,12,4.7,11,6.2,10
2017/12/17 1:16,4.7,12,4.7,11,8.9,14
2017/12/17 1:17,4.6,12,4.7,11,5.4,16
2017/12/17 1:18,4.4,12,4.7,11,3.2,12
2017/12/17 1:19,3.9,12,4.3,11,3.5,12
2017/12/17 1:20,3.6,13,3.8,11,4.2,13
2017/12/17 1:21,3.4,13,3.6,11,5.2,14
2017/12/17 1:22,3.2,13,3.4,11,6,12
2017/12/17 1:23,3.1,13,3.2,11,5.7,12
2017/12/17 1:24,3,13,3,12,6.5,12
2017/12/17 1:25,3.1,13,3.1,12,6,11
2017/12/17 1:26,2.8,12,3.1,12,4.7,11
2017/12/17 1:27,2.8,12,2.8,12,4.4,10
2017/12/17 1:28,2.9,12,2.9,12,4.1,10
2017/12/17 1:29,3.1,11,3.1,12,5.6,10
2017/12/17 1:30,3.2,11,3.2,13,4.9,10
2017/12/17 1:31,3.2,11,3.2,13,6,10
2017/12/17 1:32,3.2,11,3.3,11,5.2,8
2017/12/17 1:33,3,10,3.2,11,2.6,9
2017/12/17 1:34,2.8,10,3,11,3.8,9
2017/12/17 1:35,2.6,10,2.8,11,3,12
2017/12/17 1:36,2.5,10,2.6,11,3.5,9
2017/12/17 1:37,2.5,10,2.5,11,6.2,10
2017/12/17 1:38,2.6,10,2.6,11,6.1,10
2017/12/17 1:39,2.5,10,2.6,11,4.1,9
2017/12/17 1:40,2.4,10,2.4,11,3.6,11
2017/12/17 1:41,2.2,10,2.4,11,3.2,9
2017/12/17 1:42,2.1,10,2.2,11,3,11
2017/12/17 1:43,2.2,10,2.2,10,4.1,11
2017/12/17 1:44,2.2,10,2.2,10,4.7,10
2017/12/17 1:45,2.3,10,2.3,10,3.9,9
2017/12/17 1:46,2.4,10,2.4,10,4.8,10
2017/12/17 1:47,2.3,10,2.5,10,4.1,10
2017/12/17 1:48,2.2,10,2.3,10,4.1,9
2017/12/17 1:49,2.2,10,2.2,10,3.9,10
2017/12/17 1:50,2.1,10,2.1,10,2.1,10
2017/12/17 1:51,2.1,10,2.1,10,3.9,11
2017/12/17 1:52,2.3,10,2.3,10,3.7,11
2017/12/17 1:53,2.3,10,2.3,10,4.1,10
2017/12/17 1:54,2.3,10,2.3,10,4.4,10
2017/12/17 1:55,2.4,10,2.4,10,4.9,10
2017/12/17 1:56,2.3,10,2.4,10,3.2,9
2017/12/17 1:57,2.4,10,2.4,10,3.6,9
2017/12/17 1:58,2.4,10,2.4,10,3.2,10
2017/12/17 1:59,2.4,10,2.4,10,3.6,11
2017/12/17 2:00,2.5,10,2.5,10,5.1,10
2017/12/17 2:01,2.6,10,2.6,10,4.8,10
2017/12/17 2:02,2.6,10,2.6,10,5.4,10
2017/12/17 2:03,2.7,10,2.7,10,5.5,8
2017/12/17 2:04,2.7,10,2.7,10,4.4,10
2017/12/17 2:05,2.7,10,2.7,10,5,9
2017/12/17 2:06,2.8,10,2.8,10,5,11
2017/12/17 2:07,2.9,10,2.9,10,4.9,11
2017/12/17 2:08,2.9,10,3,10,4.2,11
2017/12/17 2:09,2.9,10,2.9,10,3,10
2017/12/17 2:10,2.7,10,2.8,10,2.1,11
2017/12/17 2:11,2.6,10,2.7,10,3.1,10
2017/12/17 2:12,2.4,10,2.6,10,3.9,9
2017/12/17 2:13,2.2,10,2.4,10,3.2,9
2017/12/17 2:14,2.1,10,2.2,10,3,9
2017/12/17 2:15,2.1,10,2.1,10,4.7,8
2017/12/17 2:16,2,10,2,10,5.4,10
2017/12/17 2:17,1.9,10,2,10,4.4,12
2017/12/17 2:18,2,10,2,10,5.8,11
2017/12/17 2:19,2.4,10,2.4,10,7,11
2017/12/17 2:20,2.6,10,2.6,10,6.7,9
2017/12/17 2:21,2.6,10,2.6,10,6,9
2017/12/17 2:22,2.8,10,2.8,10,7.4,8
2017/12/17 2:23,2.9,10,2.9,10,4.5,9
2017/12/17 2:24,3.2,10,3.2,10,6.5,12
2017/12/17 2:25,3.1,10,3.2,10,3.7,12
2017/12/17 2:26,3.1,10,3.2,10,4.4,11
2017/12/17 2:27,3.1,10,3.1,10,5.8,10
2017/12/17 2:28,3.1,10,3.2,10,6.5,10
2017/12/17 2:29,2.9,10,3.1,10,5.6,10
2017/12/17 2:30,2.8,10,2.9,10,4.2,10
2017/12/17 2:31,2.8,10,2.8,10,2.9,13
2017/12/17 2:32,2.8,11,2.8,10,7,10
2017/12/17 2:33,2.9,11,3,10,5.7,12
2017/12/17 2:34,2.8,11,2.9,10,7.5,10
2017/12/17 2:35,2.9,11,2.9,10,3.9,12
2017/12/17 2:36,2.8,11,2.9,10,5,12
2017/12/17 2:37,2.8,11,2.9,10,6.9,10
2017/12/17 2:38,2.9,11,2.9,10,7.2,10
2017/12/17 2:39,3,11,3,11,7.2,10
2017/12/17 2:40,3.1,11,3.1,11,7.7,8
2017/12/17 2:41,3.4,11,3.4,11,8.7,11
2017/12/17 2:42,3.7,11,3.7,11,10.8,10
2017/12/17 2:43,3.8,11,3.8,11,7.2,11
2017/12/17 2:44,3.9,11,3.9,11,7.7,11
2017/12/17 2:45,4.1,10,4.1,11,6.9,10
2017/12/17 2:46,4.4,10,4.4,10,8.5,10
2017/12/17 2:47,4.5,10,4.5,10,6.8,10
2017/12/17 2:48,4.3,10,4.5,10,4.8,9
2017/12/17 2:49,4.4,10,4.4,10,6.5,11
2017/12/17 2:50,4.6,10,4.6,10,7.5,9
2017/12/17 2:51,4.5,10,4.7,10,7.6,10
2017/12/17 2:52,4.2,10,4.5,10,9,10
2017/12/17 2:53,4.3,10,4.3,10,8.5,10
2017/12/17 2:54,4.4,10,4.4,10,9.3,10
2017/12/17 2:55,4.5,10,4.5,10,8.2,11
2017/12/17 2:56,4.4,10,4.5,10,9.2,9
2017/12/17 2:57,4.4,10,4.5,10,6.9,12
2017/12/17 2:58,4.6,11,4.6,10,6.8,12
2017/12/17 2:59,4.4,11,4.6,10,4.4,13
2017/12/17 3:00,4.2,11,4.4,10,5.1,10
2017/12/17 3:01,4,11,4.2,10,5,8
2017/12/17 3:02,3.9,11,4,10,4.9,10
2017/12/17 3:03,3.7,11,3.8,10,7.7,10
2017/12/17 3:04,3.4,11,3.6,10,6.9,9
2017/12/17 3:05,3.3,11,3.4,10,7,10
2017/12/17 3:06,3.3,11,3.3,10,7.5,13
2017/12/17 3:07,3.2,12,3.3,10,4.9,12
2017/12/17 3:08,3,12,3.2,11,3.6,11
2017/12/17 3:09,3.2,11,3.2,11,7.1,9
2017/12/17 3:10,3.2,11,3.3,11,9.2,9
2017/12/17 3:11,3.3,11,3.3,11,6.2,10
2017/12/17 3:12,3.3,11,3.3,11,7.7,11
2017/12/17 3:13,3.5,11,3.5,11,7.8,9
2017/12/17 3:14,3.5,11,3.5,11,7.1,12
2017/12/17 3:15,3.5,11,3.5,11,7.5,11
2017/12/17 3:16,3.3,11,3.5,11,6.3,10
2017/12/17 3:17,3.2,11,3.2,11,5.2,10
2017/12/17 3:18,3.3,11,3.3,11,5.7,10
2017/12/17 3:19,3.2,11,3.3,11,4.5,11
2017/12/17 3:20,2.9,11,3.2,11,2.1,10
2017/12/17 3:21,2.9,11,2.9,11,7.5,9
2017/12/17 3:22,3,11,3,11,6.1,10
2017/12/17 3:23,2.9,11,3,11,5.7,11
2017/12/17 3:24,2.9,11,2.9,11,5.1,8
2017/12/17 3:25,2.7,11,2.9,11,5.8,8
2017/12/17 3:26,2.6,11,2.7,11,2.7,11
2017/12/17 3:27,2.7,11,2.7,11,5.6,9
2017/12/17 3:28,2.4,11,2.7,11,4.3,8
2017/12/17 3:29,2.6,11,2.6,11,10.5,10
2017/12/17 3:30,3,11,3,11,8.5,10
2017/12/17 3:31,3.1,11,3.2,11,5.8,9
2017/12/17 3:32,3.1,11,3.1,11,5.8,10
2017/12/17 3:33,3.2,11,3.2,11,6,10
2017/12/17 3:34,3,11,3.2,11,4.9,10
2017/12/17 3:35,3,11,3,11,3.6,13
2017/12/17 3:36,3.2,11,3.2,11,5,11
2017/12/17 3:37,3.1,11,3.2,11,3.9,12
2017/12/17 3:38,3.2,11,3.2,11,3.9,10
2017/12/17 3:39,3,11,3.2,11,3.2,10
2017/12/17 3:40,2.7,11,2.9,11,2.9,9
2017/12/17 3:41,2.5,10,2.6,11,3.1,10
2017/12/17 3:42,2.3,10,2.5,11,3.7,10
2017/12/17 3:43,2,10,2.3,11,3,9
2017/12/17 3:44,2,10,2,11,3,9
2017/12/17 3:45,2,10,2.1,11,3,9
2017/12/17 3:46,1.8,9,2,11,2.4,9
2017/12/17 3:47,1.6,9,1.7,11,3.1,9
2017/12/17 3:48,1.5,9,1.6,11,2.9,8
2017/12/17 3:49,1.6,9,1.6,11,3.9,9
2017/12/17 3:50,1.7,9,1.7,11,5.5,9
2017/12/17 3:51,1.8,9,1.8,10,4.7,10
2017/12/17 3:52,1.8,9,1.8,10,5.1,10
2017/12/17 3:53,2.1,9,2.1,10,5.4,11
2017/12/17 3:54,2.1,9,2.2,9,2.9,11
2017/12/17 3:55,2.3,10,2.3,10,4.5,10
2017/12/17 3:56,2.5,10,2.5,10,5.1,10
2017/12/17 3:57,2.6,10,2.6,10,5.4,10
2017/12/17 3:58,2.8,10,2.8,10,6.1,9
2017/12/17 3:59,2.9,10,2.9,10,6.3,9
2017/12/17 4:00,2.7,10,2.8,10,4.4,10
2017/12/17 4:01,2.9,10,2.9,10,7.1,11
2017/12/17 4:02,3,10,3,10,6,10
2017/12/17 4:03,3,10,3,10,4.1,10
2017/12/17 4:04,3,10,3,10,4.9,9
2017/12/17 4:05,2.9,10,3,10,4.8,9
2017/12/17 4:06,3,10,3,10,6.7,11
2017/12/17 4:07,2.9,10,3,10,3.9,9
2017/12/17 4:08,2.9,10,2.9,10,5.7,10
2017/12/17 4:09,3,10,3,10,5.7,11
2017/12/17 4:10,3.2,10,3.2,10,4.7,11
2017/12/17 4:11,3,10,3.2,10,3.8,9
2017/12/17 4:12,2.8,10,3,10,3.9,12
2017/12/17 4:13,2.7,10,2.8,10,3.1,9
2017/12/17 4:14,2.6,10,2.6,10,2.9,11
2017/12/17 4:15,2.5,10,2.6,10,3.2,10
2017/12/17 4:16,2.3,10,2.5,10,3,13
2017/12/17 4:17,2.3,10,2.3,10,3.3,10
2017/12/17 4:18,2.2,10,2.4,10,3.3,11
2017/12/17 4:19,2.1,10,2.2,10,3.5,13
2017/12/17 4:20,2,11,2.1,10,3.2,11
2017/12/17 4:21,1.9,10,2,10,3.1,9
2017/12/17 4:22,2,10,2,10,3,10
2017/12/17 4:23,1.9,10,2,10,1.9,10
2017/12/17 4:24,1.9,10,1.9,10,3.1,10
2017/12/17 4:25,1.9,10,1.9,10,3.7,8
2017/12/17 4:26,1.9,10,1.9,10,3.5,9
2017/12/17 4:27,1.9,10,1.9,10,2.6,10
2017/12/17 4:28,1.9,10,1.9,10,3.5,10
2017/12/17 4:29,1.9,10,1.9,10,3.9,10
2017/12/17 4:30,1.9,10,1.9,11,4.2,10
2017/12/17 4:31,2,10,2,10,4.5,10
2017/12/17 4:32,2,10,2,10,5.6,9
2017/12/17 4:33,2.3,10,2.3,10,5.5,9
2017/12/17 4:34,2.3,10,2.3,10,4.1,11
2017/12/17 4:35,2.3,10,2.3,10,3.7,11
2017/12/17 4:36,2.2,10,2.3,10,3.6,9
2017/12/17 4:37,2.2,10,2.2,10,3.3,10
2017/12/17 4:38,2.3,10,2.3,10,4.9,10
2017/12/17 4:39,2.2,10,2.3,10,3.5,10
2017/12/17 4:40,2.2,10,2.3,10,3.9,10
2017/12/17 4:41,2.2,10,2.3,10,3.6,10
2017/12/17 4:42,2.1,10,2.2,10,3.7,10
2017/12/17 4:43,2,11,2.1,10,2.9,13
2017/12/17 4:44,1.9,11,2,10,1.6,12
2017/12/17 4:45,1.8,11,1.9,10,2.9,13
2017/12/17 4:46,1.8,11,1.8,10,2.5,10
2017/12/17 4:47,1.8,11,1.8,10,2.7,10
2017/12/17 4:48,1.6,11,1.7,10,2.4,9
2017/12/17 4:49,1.6,11,1.6,10,3.1,10
2017/12/17 4:50,1.4,11,1.6,10,1.3,10
2017/12/17 4:51,1.3,11,1.3,10,3.6,11
2017/12/17 4:52,1.3,11,1.3,10,3.8,10
2017/12/17 4:53,1.3,11,1.3,11,2.7,9
2017/12/17 4:54,1.4,11,1.4,11,2.5,10
2017/12/17 4:55,1.4,11,1.4,11,2.2,10
2017/12/17 4:56,1.4,11,1.4,11,2.2,12
2017/12/17 4:57,1.4,11,1.5,11,2.9,12
2017/12/17 4:58,1.5,11,1.5,11,3.2,13
2017/12/17 4:59,1.4,11,1.5,11,2.5,12
2017/12/17 5:00,1.5,12,1.5,11,1.6,15
2017/12/17 5:01,1.6,12,1.6,12,3.7,13
2017/12/17 5:02,1.4,12,1.6,12,2.9,13
2017/12/17 5:03,1.4,12,1.4,12,2.5,7
2017/12/17 5:04,1.3,12,1.4,12,2.6,10
2017/12/17 5:05,1.3,12,1.3,12,2.1,12
2017/12/17 5:06,1.3,12,1.3,12,2.1,14
2017/12/17 5:07,1.2,12,1.3,12,1.5,14
2017/12/17 5:08,1.1,12,1.2,12,2,13
2017/12/17 5:09,1.1,12,1.1,12,1.5,12
2017/12/17 5:10,1.1,12,1.1,12,4.2,13
2017/12/17 5:11,1.2,12,1.2,12,5.4,13
2017/12/17 5:12,1.3,12,1.3,12,3.6,12
2017/12/17 5:13,1.5,12,1.5,12,5.4,13
2017/12/17 5:14,1.7,12,1.7,12,4.2,13
2017/12/17 5:15,1.9,13,1.9,13,5,13
2017/12/17 5:16,2,13,2,13,5.6,13
2017/12/17 5:17,2.1,12,2.1,13,3.5,13
2017/12/17 5:18,2.2,12,2.2,12,2,12
2017/12/17 5:19,2.2,12,2.2,12,2.6,11
2017/12/17 5:20,2.2,12,2.2,12,2,8
2017/12/17 5:21,2.1,12,2.2,12,4.1,11
2017/12/17 5:22,2,12,2.1,12,2.5,10
2017/12/17 5:23,1.9,12,2,12,3.5,15
2017/12/17 5:24,1.9,12,1.9,12,4.1,13
2017/12/17 5:25,1.7,12,1.9,12,3,9
2017/12/17 5:26,1.6,12,1.7,12,3.8,10
2017/12/17 5:27,1.7,12,1.7,12,3.5,13
2017/12/17 5:28,2,12,2,12,5.8,13
2017/12/17 5:29,2,12,2,12,3.8,11
2017/12/17 5:30,2,12,2,12,2.7,9
2017/12/17 5:31,1.9,12,2,12,2.6,9
2017/12/17 5:32,1.8,12,1.9,12,1.1,13
2017/12/17 5:33,1.8,11,1.9,12,3.6,10
2017/12/17 5:34,1.6,11,1.8,12,2,14
2017/12/17 5:35,1.5,12,1.6,12,1.4,15
2017/12/17 5:36,1.5,12,1.5,12,2.4,16
2017/12/17 5:37,1.4,12,1.5,12,3.7,12
2017/12/17 5:38,1.3,12,1.4,12,3.7,14
2017/12/17 5:39,1.4,12,1.4,12,5,11
2017/12/17 5:40,1.6,12,1.6,12,4.8,10
2017/12/17 5:41,1.7,12,1.7,12,3.1,11
2017/12/17 5:42,1.9,12,1.9,12,3.8,10
2017/12/17 5:43,1.9,12,1.9,12,3.3,10
2017/12/17 5:44,2,12,2,12,3.7,8
2017/12/17 5:45,2.5,12,2.5,12,9.1,12
2017/12/17 5:46,2.8,12,2.8,12,7.4,14
2017/12/17 5:47,2.8,12,2.9,12,4.8,13
2017/12/17 5:48,2.9,12,2.9,12,6,10
2017/12/17 5:49,2.8,12,2.9,12,3.9,10
2017/12/17 5:50,2.8,12,2.8,12,4.4,9
2017/12/17 5:51,2.9,11,2.9,12,5.8,9
2017/12/17 5:52,2.9,11,2.9,12,4.1,9
2017/12/17 5:53,3,12,3,11,4.2,13
2017/12/17 5:54,3.1,12,3.1,12,4.1,12
2017/12/17 5:55,2.8,12,3.1,12,4.4,13
2017/12/17 5:56,2.7,12,2.8,12,4.8,12
2017/12/17 5:57,2.8,12,2.8,12,4.9,13
2017/12/17 5:58,2.8,12,2.9,12,4.3,13
2017/12/17 5:59,2.9,12,2.9,12,5.5,13
2017/12/17 6:00,2.7,12,2.8,12,2.5,11
2017/12/17 6:01,2.5,12,2.7,12,2.7,10
2017/12/17 6:02,2.5,12,2.5,12,4.4,13
2017/12/17 6:03,2.5,13,2.5,12,4.5,12
2017/12/17 6:04,2.7,13,2.7,12,5.1,12
2017/12/17 6:05,2.6,12,2.7,12,5.2,13
2017/12/17 6:06,2.6,13,2.7,12,4.7,13
2017/12/17 6:07,2.5,13,2.6,12,3,14
2017/12/17 6:08,2.4,12,2.5,12,2.1,11
2017/12/17 6:09,2.2,12,2.4,12,3.6,12
2017/12/17 6:10,2.2,12,2.2,12,4.4,13
2017/12/17 6:11,2.5,12,2.5,13,6.4,12
2017/12/17 6:12,2.7,12,2.7,13,7.8,12
2017/12/17 6:13,2.5,12,2.7,13,4.2,13
2017/12/17 6:14,2.2,12,2.5,13,3,12
2017/12/17 6:15,2.1,12,2.2,12,4.2,12
2017/12/17 6:16,1.9,12,2.1,12,2.5,9
2017/12/17 6:17,1.8,12,1.9,12,2.9,10
2017/12/17 6:18,1.8,12,1.8,12,3,10
2017/12/17 6:19,1.8,12,1.8,12,4.1,11
2017/12/17 6:20,1.9,12,1.9,12,4.3,10
2017/12/17 6:21,1.7,12,1.9,12,4.9,10
2017/12/17 6:22,1.7,12,1.8,12,6.8,10
2017/12/17 6:23,1.9,11,1.9,12,6.4,11
2017/12/17 6:24,1.9,11,2,12,4.8,10
2017/12/17 6:25,2,11,2,12,4.4,10
2017/12/17 6:26,2.2,11,2.2,11,5.4,11
2017/12/17 6:27,2.2,11,2.2,11,3.5,10
2017/12/17 6:28,2.4,11,2.4,11,4.8,11
2017/12/17 6:29,2.6,11,2.6,11,4.7,10
2017/12/17 6:30,2.6,11,2.6,11,4.5,10
2017/12/17 6:31,2.6,11,2.7,11,3.9,11
2017/12/17 6:32,2.5,11,2.6,11,5,8
2017/12/17 6:33,2.3,11,2.5,11,3.5,10
2017/12/17 6:34,2.3,11,2.3,11,3.6,10
2017/12/17 6:35,2.3,11,2.3,11,3.8,9
2017/12/17 6:36,2.2,11,2.3,11,4.2,9
2017/12/17 6:37,2.1,11,2.2,11,2.5,10
2017/12/17 6:38,2,11,2.1,11,3.2,9
2017/12/17 6:39,1.8,11,2,11,2.6,9
2017/12/17 6:40,1.9,11,1.9,11,6,11
2017/12/17 6:41,2,11,2,11,5.8,10
2017/12/17 6:42,2.1,11,2.1,11,6.5,10
2017/12/17 6:43,2.2,11,2.2,11,5.6,10
2017/12/17 6:44,2.3,11,2.3,11,4.9,10
2017/12/17 6:45,2.4,11,2.4,11,6.8,10
2017/12/17 6:46,2.6,11,2.6,11,5.4,10
2017/12/17 6:47,2.9,10,2.9,10,5.6,10
2017/12/17 6:48,3.1,10,3.1,10,6.3,10
2017/12/17 6:49,3.5,10,3.5,10,6.1,10
2017/12/17 6:50,3.5,10,3.6,10,5.4,11
2017/12/17 6:51,3.5,10,3.5,10,4.5,10
2017/12/17 6:52,3.5,10,3.5,10,4.2,10
2017/12/17 6:53,3.4,10,3.4,10,3.7,12
2017/12/17 6:54,3.3,10,3.4,10,4.4,9
2017/12/17 6:55,3.2,10,3.3,10,4.2,9
2017/12/17 6:56,3,10,3.2,10,3.8,8
2017/12/17 6:57,2.8,11,3,10,4.4,11
2017/12/17 6:58,2.6,11,2.8,10,3.2,11
2017/12/17 6:59,2.3,10,2.5,10,2.7,9
2017/12/17 7:00,2,11,2.2,10,2.7,14
2017/12/17 7:01,1.9,11,2,10,3.2,11
2017/12/17 7:02,1.8,11,2,10,4.3,13
2017/12/17 7:03,1.8,11,1.8,10,2.6,14
2017/12/17 7:04,1.7,11,1.8,10,3.5,8
2017/12/17 7:05,1.6,11,1.7,10,2.2,10
2017/12/17 7:06,1.5,11,1.6,10,2.2,9
2017/12/17 7:07,1.4,11,1.5,11,3.7,9
2017/12/17 7:08,1.4,11,1.5,11,2.6,10
2017/12/17 7:09,1.5,11,1.5,10,3.5,10
2017/12/17 7:10,1.6,11,1.6,11,3.6,12
2017/12/17 7:11,1.5,11,1.6,11,3,9
2017/12/17 7:12,1.4,11,1.5,11,2,13
2017/12/17 7:13,1.4,10,1.4,11,2.4,10
2017/12/17 7:14,1.4,10,1.4,11,2.9,9
2017/12/17 7:15,1.5,10,1.5,11,4.3,11
2017/12/17 7:16,1.6,10,1.6,11,4.1,8
2017/12/17 7:17,1.8,10,1.8,10,4.5,9
2017/12/17 7:18,1.9,10,1.9,10,4.9,10
2017/12/17 7:19,1.8,10,1.9,10,3.2,11
2017/12/17 7:20,1.9,10,1.9,10,4.7,10
2017/12/17 7:21,2.1,10,2.1,10,6.2,9
2017/12/17 7:22,2.3,10,2.3,10,6.1,10
2017/12/17 7:23,2.5,10,2.5,10,5,10
2017/12/17 7:24,2.6,10,2.6,10,5.5,10
2017/12/17 7:25,2.7,10,2.7,10,5.1,9
2017/12/17 7:26,3,10,3,10,6.4,10
2017/12/17 7:27,3,10,3,10,5.2,10
2017/12/17 7:28,3.1,10,3.1,10,5.8,10
2017/12/17 7:29,3.1,10,3.1,10,3.8,11
2017/12/17 7:30,3.2,10,3.2,10,4.9,10
2017/12/17 7:31,3.2,10,3.3,10,6.3,11
2017/12/17 7:32,3.2,10,3.2,10,5,9
2017/12/17 7:33,3.2,10,3.3,10,4.5,10
2017/12/17 7:34,3.1,10,3.2,10,3.8,10
2017/12/17 7:35,3,10,3.1,10,4.3,9
2017/12/17 7:36,2.9,10,3,10,4.8,10
2017/12/17 7:37,2.8,10,2.8,10,3.8,10
2017/12/17 7:38,2.7,10,2.8,10,3.1,11
2017/12/17 7:39,2.7,10,2.7,10,2.6,9
2017/12/17 7:40,2.5,10,2.7,10,3.2,9
2017/12/17 7:41,2.3,10,2.4,10,3.9,10
2017/12/17 7:42,2.1,10,2.3,10,4.2,10
2017/12/17 7:43,2.1,10,2.1,10,3.6,11
2017/12/17 7:44,2.1,10,2.1,10,2.4,9
2017/12/17 7:45,2,10,2,10,3.2,10
2017/12/17 7:46,2,10,2,10,4.3,10
2017/12/17 7:47,2,10,2,10,3.5,9
2017/12/17 7:48,1.9,10,2,10,2.6,9
2017/12/17 7:49,1.9,10,1.9,10,4.1,10
2017/12/17 7:50,1.9,10,1.9,10,3.7,11
2017/12/17 7:51,2,10,2,10,4.3,10
2017/12/17 7:52,2,10,2.1,10,5.2,10
2017/12/17 7:53,2,10,2.1,10,4.1,9
2017/12/17 7:54,2,10,2,10,4.3,10
2017/12/17 7:55,2.3,10,2.3,10,5.6,10
2017/12/17 7:56,2.3,10,2.3,10,5.1,11
2017/12/17 7:57,2.3,10,2.3,10,3.3,9
2017/12/17 7:58,2.5,10,2.5,10,5,10
2017/12/17 7:59,2.6,10,2.6,10,6,11
2017/12/17 8:00,2.8,10,2.8,10,3.5,9
2017/12/17 8:01,2.6,10,2.8,10,3.3,9
2017/12/17 8:02,2.5,10,2.6,10,2.4,8
2017/12/17 8:03,2.5,10,2.5,10,4.8,9
2017/12/17 8:04,2.5,10,2.6,10,3.9,9
2017/12/17 8:05,2.3,10,2.5,10,3.5,8
2017/12/17 8:06,2.1,10,2.3,10,2.6,9
2017/12/17 8:07,2,10,2.1,10,2.7,10
2017/12/17 8:08,1.8,10,2,10,3.3,9
2017/12/17 8:09,1.6,10,1.8,10,2.9,8
2017/12/17 8:10,1.6,10,1.6,10,3.5,9
2017/12/17 8:11,1.6,10,1.7,10,5.7,9
2017/12/17 8:12,1.6,10,1.7,10,2.2,9
2017/12/17 8:13,1.6,10,1.7,10,5.1,9
2017/12/17 8:14,1.5,9,1.6,10,3.2,9
2017/12/17 8:15,1.6,9,1.6,10,5.7,9
2017/12/17 8:16,1.7,9,1.7,10,5.1,9
2017/12/17 8:17,1.9,9,1.9,10,6.7,10
2017/12/17 8:18,1.9,9,1.9,9,4.7,9
2017/12/17 8:19,2,9,2,9,4.9,9
2017/12/17 8:20,2.1,9,2.1,9,4.5,8
2017/12/17 8:21,2.1,9,2.1,9,4.2,9
2017/12/17 8:22,2.3,9,2.3,9,5.2,9
2017/12/17 8:23,2.5,9,2.5,9,5.8,9
2017/12/17 8:24,2.8,9,2.8,9,5.8,9
2017/12/17 8:25,2.8,9,2.8,9,7.2,9
2017/12/17 8:26,2.8,10,2.8,9,6.2,10
2017/12/17 8:27,2.8,10,2.9,10,5.2,11
2017/12/17 8:28,3.1,10,3.1,10,6,9
2017/12/17 8:29,3.2,10,3.2,10,7.4,9
2017/12/17 8:30,3.2,10,3.2,10,5.8,10
2017/12/17 8:31,3.2,10,3.2,10,4.7,10
2017/12/17 8:32,3.1,10,3.2,10,5.5,10
2017/12/17 8:33,3.2,10,3.2,10,6.7,10
2017/12/17 8:34,3.3,10,3.3,10,6.1,10
2017/12/17 8:35,3.4,10,3.4,10,6.8,9
2017/12/17 8:36,3.4,10,3.4,10,4.8,10
2017/12/17 8:37,3.3,10,3.3,10,5,10
2017/12/17 8:38,3.2,10,3.3,10,5.2,10
2017/12/17 8:39,3.1,10,3.2,10,5.8,10
2017/12/17 8:40,3.3,10,3.3,10,6.4,10
2017/12/17 8:41,3.4,10,3.4,10,5.7,10
2017/12/17 8:42,3.6,10,3.6,10,5.2,9
2017/12/17 8:43,3.4,10,3.5,10,5.4,10
2017/12/17 8:44,3.4,10,3.5,10,5.4,11
2017/12/17 8:45,3.4,10,3.4,10,5.8,10
2017/12/17 8:46,3.4,10,3.4,10,4.8,10
2017/12/17 8:47,3.5,10,3.5,10,5.6,10
2017/12/17 8:48,3.5,10,3.6,10,5.1,8
2017/12/17 8:49,3.4,10,3.5,10,4.7,10
2017/12/17 8:50,3.3,10,3.5,10,6.1,9
2017/12/17 8:51,3.2,10,3.3,10,5.5,10
2017/12/17 8:52,3.3,10,3.3,10,5.8,10
2017/12/17 8:53,3.5,10,3.5,10,6.7,10
2017/12/17 8:54,3.5,10,3.5,10,5.7,10
2017/12/17 8:55,3.5,10,3.5,10,6.4,9
2017/12/17 8:56,3.5,10,3.5,10,4.5,8
2017/12/17 8:57,3.6,10,3.6,10,6.2,10
2017/12/17 8:58,3.8,10,3.8,10,7.1,10
2017/12/17 8:59,3.8,10,3.9,10,5.4,9
2017/12/17 9:00,3.8,10,3.8,10,4.4,10
2017/12/17 9:01,3.9,10,3.9,10,5.7,12
2017/12/17 9:02,3.8,10,3.9,10,6.3,11
2017/12/17 9:03,3.8,10,3.8,10,6.2,9
2017/12/17 9:04,3.9,10,3.9,10,7.1,10
2017/12/17 9:05,3.9,10,3.9,10,5.8,10
2017/12/17 9:06,3.9,10,3.9,10,5.4,9
2017/12/17 9:07,3.9,10,4,10,6.2,10
2017/12/17 9:08,3.8,10,3.9,10,6.3,9
2017/12/17 9:09,3.9,10,4,10,7,10
2017/12/17 9:10,4,10,4,10,6.9,11
2017/12/17 9:11,4.1,10,4.1,10,7,9
2017/12/17 9:12,4.1,10,4.1,10,6.1,10
2017/12/17 9:13,4,10,4.1,10,6.2,10
2017/12/17 9:14,3.7,10,4,10,5,9
2017/12/17 9:15,3.7,10,3.8,10,6.4,10
2017/12/17 9:16,3.8,10,3.8,10,7.1,11
2017/12/17 9:17,3.8,10,3.9,10,7.4,9
2017/12/17 9:18,3.8,10,3.9,10,5.7,10
2017/12/17 9:19,3.8,10,3.8,10,5.7,10
2017/12/17 9:20,3.6,10,3.8,10,5.1,10
2017/12/17 9:21,3.6,10,3.6,10,5,11
2017/12/17 9:22,3.5,10,3.6,10,5.4,10
2017/12/17 9:23,3.4,10,3.5,10,4.5,10
2017/12/17 9:24,3.5,11,3.5,10,4.5,10
2017/12/17 9:25,3.2,11,3.5,10,4.3,9
2017/12/17 9:26,3.1,11,3.2,10,4.1,10
2017/12/17 9:27,3,11,3.1,10,4.3,10
2017/12/17 9:28,2.8,11,2.9,10,3.3,10
2017/12/17 9:29,2.6,11,2.8,10,4.7,9
2017/12/17 9:30,2.6,11,2.6,10,5.4,10
2017/12/17 9:31,2.5,11,2.6,10,4.1,10
2017/12/17 9:32,2.5,10,2.5,10,5.7,10
2017/12/17 9:33,2.7,10,2.7,10,5,10
2017/12/17 9:34,2.7,10,2.7,11,7.1,10
2017/12/17 9:35,2.8,10,2.8,11,7.4,10
2017/12/17 9:36,2.9,10,2.9,11,5.8,9
2017/12/17 9:37,3,10,3,10,6.4,10
2017/12/17 9:38,3.2,10,3.2,10,6.1,9
2017/12/17 9:39,3.4,10,3.4,10,6.5,10
2017/12/17 9:40,3.4,10,3.5,10,4.9,8
2017/12/17 9:41,3.4,10,3.4,10,6.4,11
2017/12/17 9:42,3.5,10,3.5,10,6.2,10
2017/12/17 9:43,3.3,10,3.5,10,4.4,8
2017/12/17 9:44,3.2,10,3.3,10,4.8,11
2017/12/17 9:45,3.3,10,3.3,10,6.7,10
2017/12/17 9:46,3.3,10,3.3,10,5.2,10
2017/12/17 9:47,3.3,10,3.3,10,6.4,11
2017/12/17 9:48,3.4,10,3.4,10,7.1,10
2017/12/17 9:49,3.4,10,3.4,10,6.2,10
2017/12/17 9:50,3.6,10,3.6,10,7.9,10
2017/12/17 9:51,3.7,10,3.7,10,6.5,10
2017/12/17 9:52,3.7,10,3.7,10,6.3,10
2017/12/17 9:53,4,10,4,10,6.5,10
2017/12/17 9:54,4,10,4.1,10,6.3,9
2017/12/17 9:55,4.1,10,4.1,10,7.8,10
2017/12/17 9:56,4.3,10,4.3,10,9.2,10
2017/12/17 9:57,4.2,10,4.4,10,6.7,10
2017/12/17 9:58,4.3,10,4.3,10,7.6,10
2017/12/17 9:59,4.4,10,4.4,10,7.2,10
2017/12/17 10:00,4.1,10,4.4,10,5.4,9
2017/12/17 10:01,4,10,4.1,10,7,10
2017/12/17 10:02,4.1,10,4.1,10,7.7,10
2017/12/17 10:03,4,10,4.1,10,6.2,11
2017/12/17 10:04,4.1,10,4.1,10,6.3,11
2017/12/17 10:05,3.9,10,4.1,10,4.1,10
2017/12/17 10:06,3.5,10,3.8,10,3.9,10
2017/12/17 10:07,3.5,10,3.5,10,7.5,9
2017/12/17 10:08,3.3,10,3.4,10,7.1,11
2017/12/17 10:09,3.2,10,3.3,10,7.7,10
2017/12/17 10:10,3.1,10,3.1,10,4.3,11
2017/12/17 10:11,3.1,10,3.2,10,3.9,9
2017/12/17 10:12,3,11,3.1,10,5.1,12
2017/12/17 10:13,2.8,11,3,10,4.1,12
2017/12/17 10:14,2.5,11,2.7,10,3,12
2017/12/17 10:15,2.5,11,2.5,10,6,10
2017/12/17 10:16,2.4,11,2.5,10,3.1,8
2017/12/17 10:17,2.3,11,2.4,10,4.4,13
2017/12/17 10:18,2.4,12,2.4,10,5.6,13
2017/12/17 10:19,2.3,12,2.4,10,6.1,12
2017/12/17 10:20,2.4,12,2.4,10,5.6,12
2017/12/17 10:21,2.3,12,2.4,10,2.9,15
2017/12/17 10:22,2.1,12,2.3,11,3,11
2017/12/17 10:23,2.2,12,2.2,11,4.3,12
2017/12/17 10:24,2.2,12,2.3,11,2.5,15
2017/12/17 10:25,2.1,12,2.2,11,2.9,11
2017/12/17 10:26,2.2,13,2.2,11,3.5,12
2017/12/17 10:27,2.1,13,2.2,11,2.6,14
2017/12/17 10:28,2,12,2.1,12,5,11
2017/12/17 10:29,2,12,2,12,7.8,12
2017/12/17 10:30,2,12,2.1,12,6,12
2017/12/17 10:31,2.2,12,2.2,12,4.5,12
2017/12/17 10:32,2.5,12,2.5,12,5.6,13
2017/12/17 10:33,2.5,12,2.5,12,4.1,14
2017/12/17 10:34,2.6,12,2.6,12,3.5,16
2017/12/17 10:35,2.7,13,2.7,13,3.9,16
2017/12/17 10:36,2.6,13,2.6,13,3.2,14
2017/12/17 10:37,2.7,13,2.7,13,4.9,13
2017/12/17 10:38,2.7,13,2.7,13,5.2,13
2017/12/17 10:39,2.8,13,2.8,13,4.7,12
2017/12/17 10:40,2.8,13,2.8,13,4.5,12
2017/12/17 10:41,2.8,13,2.8,13,5.1,13